Location: Indian Hills
(32.9760°N, 85.9450°W)
Time: 15:48:54
(UTC+00:00)

Cosmos 407 Rocket - Pass Details

Date: 09 December 2019
Orbit: 743 x 787 km, 74.0° (Epoch: 19 January)

Event Time Altitude Azimuth Distance (km) Brightness Sun altitude
Exits shadow 10:34:48 36° 352° (N) 1,225 4.3 -24.5°
Maximum altitude 10:37:02 79° 73° (ENE) 804 3.6 -24.1°
Drops below altitude 10° 10:42:22 10° 160° (SSE) 2,336 6.4 -23.0°
Sets 10:44:45 0° 162° (SSE) 3,259 7.2 -22.5°
